Time,TemperatureF,DewpointF,PressureIn,WindDirection,WindDirectionDegrees,WindSpeedMPH,WindSpeedGustMPH,Humidity,HourlyPrecipIn,Conditions,Clouds,dailyrainin,SoftwareType,DateUTC
2013-01-30 00:00:00,49.8,43.9,30.30,SE,138,0.0,0.0,80,0.00,,,0.00,WeatherCatV1.13B119,2013-01-30 08:00:00,
2013-01-30 00:05:00,49.7,44.1,30.30,SE,138,0.0,0.0,81,0.00,,,0.00,WeatherCatV1.13B119,2013-01-30 08:05:00,
2013-01-30 00:10:00,49.6,44.0,30.30,SE,138,0.0,0.0,81,0.00,,,0.00,WeatherCatV1.13B119,2013-01-30 08:10:00,
2013-01-30 00:15:00,49.6,44.0,30.30,SE,138,0.0,0.0,81,0.00,,,0.00,WeatherCatV1.13B119,2013-01-30 08:15:00,
2013-01-30 00:20:00,49.7,44.1,30.30,SE,138,0.0,0.0,81,0.00,,,0.00,WeatherCatV1.13B119,2013-01-30 08:20:00,
2013-01-30 00:25:00,49.7,44.1,30.30,SE,138,0.0,0.0,81,0.00,,,0.00,WeatherCatV1.13B119,2013-01-30 08:25:00,
2013-01-30 00:30:00,49.6,44.0,30.30,SE,139,0.0,0.0,81,0.00,,,0.00,WeatherCatV1.13B119,2013-01-30 08:30:00,
2013-01-30 00:35:00,49.4,43.8,30.30,SE,138,0.0,0.0,81,0.00,,,0.00,WeatherCatV1.13B119,2013-01-30 08:35:00,
2013-01-30 00:40:00,49.3,44.0,30.30,SE,140,0.0,0.0,82,0.00,,,0.00,WeatherCatV1.13B119,2013-01-30 08:40:00,
2013-01-30 00:45:00,49.2,44.6,30.30,SE,138,0.0,0.0,84,0.00,,,0.00,WeatherCatV1.13B119,2013-01-30 08:45:00,
2013-01-30 00:50:00,49.0,44.7,30.30,SW,236,0.0,1.0,85,0.00,,,0.00,WeatherCatV1.13B119,2013-01-30 08:50:00,
2013-01-30 00:55:00,48.9,44.9,30.30,SW,235,0.0,2.0,86,0.00,,,0.00,WeatherCatV1.13B119,2013-01-30 08:55:00,
2013-01-30 01:00:00,48.9,44.9,30.30,West,264,0.0,0.0,86,0.00,,,0.00,WeatherCatV1.13B119,2013-01-30 09:00:00,
2013-01-30 01:05:00,48.8,44.8,30.30,SSE,150,0.0,0.0,86,0.00,,,0.00,WeatherCatV1.13B119,2013-01-30 09:05:00,
2013-01-30 01:11:00,48.8,44.8,30.30,SE,136,0.0,0.0,86,0.00,,,0.00,WeatherCatV1.13B119,2013-01-30 09:11:00,
2013-01-30 01:18:00,48.7,44.7,30.30,SSE,152,0.0,0.0,86,0.00,,,0.00,WeatherCatV1.13B119,2013-01-30 09:18:00,
2013-01-30 01:23:00,48.6,44.9,30.30,SSE,152,0.0,0.0,87,0.00,,,0.00,WeatherCatV1.13B119,2013-01-30 09:23:00,
2013-01-30 01:28:00,48.6,44.6,30.30,SSE,153,0.0,0.0,86,0.00,,,0.00,WeatherCatV1.13B119,2013-01-30 09:28:00,
2013-01-30 01:33:00,49.0,45.0,30.30,SSE,152,0.0,0.0,86,0.00,,,0.00,WeatherCatV1.13B119,2013-01-30 09:33:00,
2013-01-30 01:38:00,48.9,44.6,30.30,SSE,153,0.0,0.0,85,0.00,,,0.00,WeatherCatV1.13B119,2013-01-30 09:38:00,
2013-01-30 01:43:00,49.1,44.8,30.30,SE,136,0.0,0.0,85,0.00,,,0.00,WeatherCatV1.13B119,2013-01-30 09:43:00,
2013-01-30 01:48:00,49.6,44.7,30.30,ESE,110,0.0,0.0,83,0.00,,,0.00,WeatherCatV1.13B119,2013-01-30 09:48:00,
2013-01-30 01:53:00,50.0,44.7,30.30,ESE,110,0.0,0.0,82,0.00,,,0.00,WeatherCatV1.13B119,2013-01-30 09:53:00,
2013-01-30 01:58:00,50.1,44.5,30.30,ESE,108,0.0,0.0,81,0.00,,,0.00,WeatherCatV1.13B119,2013-01-30 09:58:00,
2013-01-30 02:03:00,50.2,44.9,30.30,NE,47,0.0,0.0,82,0.00,,,0.00,WeatherCatV1.13B119,2013-01-30 10:03:00,
2013-01-30 02:08:00,50.0,44.7,30.30,NE,47,0.0,0.0,82,0.00,,,0.00,WeatherCatV1.13B119,2013-01-30 10:08:00,
2013-01-30 02:13:00,49.7,44.7,30.30,NE,47,0.0,0.0,83,0.00,,,0.00,WeatherCatV1.13B119,2013-01-30 10:13:00,
2013-01-30 02:18:00,49.5,44.6,30.30,NE,48,0.0,0.0,83,0.00,,,0.00,WeatherCatV1.13B119,2013-01-30 10:18:00,
2013-01-30 02:23:00,49.1,44.2,30.30,NE,49,0.0,0.0,83,0.00,,,0.00,WeatherCatV1.13B119,2013-01-30 10:23:00,
2013-01-30 02:28:00,48.7,44.1,30.30,NE,46,0.0,0.0,84,0.00,,,0.00,WeatherCatV1.13B119,2013-01-30 10:28:00,
2013-01-30 02:33:00,48.4,43.8,30.29,NE,48,0.0,0.0,84,0.00,,,0.00,WeatherCatV1.13B119,2013-01-30 10:33:00,
2013-01-30 02:38:00,48.2,43.6,30.30,NE,49,0.0,0.0,84,0.00,,,0.00,WeatherCatV1.13B119,2013-01-30 10:38:00,
2013-01-30 02:43:00,48.0,43.7,30.29,NE,48,0.0,0.0,85,0.00,,,0.00,WeatherCatV1.13B119,2013-01-30 10:43:00,
2013-01-30 02:48:00,47.9,43.6,30.30,NE,47,0.0,0.0,85,0.00,,,0.00,WeatherCatV1.13B119,2013-01-30 10:48:00,
2013-01-30 02:53:00,47.8,43.8,30.29,NE,47,0.0,0.0,86,0.00,,,0.00,WeatherCatV1.13B119,2013-01-30 10:53:00,
2013-01-30 02:58:00,47.7,43.7,30.29,NE,48,0.0,0.0,86,0.00,,,0.00,WeatherCatV1.13B119,2013-01-30 10:58:00,
2013-01-30 03:03:00,47.6,43.6,30.29,NE,47,0.0,0.0,86,0.00,,,0.00,WeatherCatV1.13B119,2013-01-30 11:03:00,
2013-01-30 03:08:00,47.4,43.4,30.29,NE,47,0.0,0.0,86,0.00,,,0.00,WeatherCatV1.13B119,2013-01-30 11:08:00,
2013-01-30 03:13:00,47.3,43.3,30.29,NE,49,0.0,0.0,86,0.00,,,0.00,WeatherCatV1.13B119,2013-01-30 11:13:00,
2013-01-30 03:18:00,47.5,43.5,30.29,NE,47,0.0,0.0,86,0.00,,,0.00,WeatherCatV1.13B119,2013-01-30 11:18:00,
2013-01-30 03:23:00,47.6,43.3,30.29,NE,47,0.0,0.0,85,0.00,,,0.00,WeatherCatV1.13B119,2013-01-30 11:23:00,
2013-01-30 03:28:00,47.8,43.5,30.29,NE,47,0.0,0.0,85,0.00,,,0.00,WeatherCatV1.13B119,2013-01-30 11:28:00,
2013-01-30 03:33:00,48.2,43.6,30.29,NE,46,0.0,0.0,84,0.00,,,0.00,WeatherCatV1.13B119,2013-01-30 11:33:00,
2013-01-30 03:38:00,48.4,43.5,30.29,NE,47,0.0,0.0,83,0.00,,,0.00,WeatherCatV1.13B119,2013-01-30 11:38:00,
2013-01-30 03:43:00,48.6,43.7,30.29,NE,47,0.0,0.0,83,0.00,,,0.00,WeatherCatV1.13B119,2013-01-30 11:43:00,
2013-01-30 03:48:00,48.9,43.6,30.29,NW,315,0.0,0.0,82,0.00,,,0.00,WeatherCatV1.13B119,2013-01-30 11:48:00,
2013-01-30 03:53:00,49.1,43.8,30.28,NW,314,0.0,0.0,82,0.00,,,0.00,WeatherCatV1.13B119,2013-01-30 11:53:00,
2013-01-30 03:58:00,49.6,43.7,30.28,NW,314,0.0,0.0,80,0.00,,,0.00,WeatherCatV1.13B119,2013-01-30 11:58:00,
2013-01-30 04:03:00,50.0,43.7,30.28,NW,314,0.0,0.0,79,0.00,,,0.00,WeatherCatV1.13B119,2013-01-30 12:03:00,
2013-01-30 04:08:00,50.0,43.7,30.28,NW,312,0.0,0.0,79,0.00,,,0.00,WeatherCatV1.13B119,2013-01-30 12:08:00,
2013-01-30 04:13:00,49.9,44.0,30.28,NW,312,0.0,0.0,80,0.00,,,0.00,WeatherCatV1.13B119,2013-01-30 12:13:00,
2013-01-30 04:18:00,49.8,44.2,30.28,NNW,343,0.0,0.0,81,0.00,,,0.00,WeatherCatV1.13B119,2013-01-30 12:18:00,
2013-01-30 04:23:00,49.7,44.1,30.28,NNW,343,0.0,0.0,81,0.00,,,0.00,WeatherCatV1.13B119,2013-01-30 12:23:00,
2013-01-30 04:28:00,49.5,44.2,30.28,NNW,343,0.0,0.0,82,0.00,,,0.00,WeatherCatV1.13B119,2013-01-30 12:28:00,
2013-01-30 04:35:00,49.0,44.1,30.28,NNW,343,0.0,0.0,83,0.00,,,0.00,WeatherCatV1.13B119,2013-01-30 12:35:00,
2013-01-30 04:40:00,48.7,43.8,30.28,NNW,342,0.0,0.0,83,0.00,,,0.00,WeatherCatV1.13B119,2013-01-30 12:40:00,
2013-01-30 04:45:00,48.3,43.7,30.28,NNW,343,0.0,0.0,84,0.00,,,0.00,WeatherCatV1.13B119,2013-01-30 12:45:00,
2013-01-30 04:50:00,48.0,43.7,30.28,NNW,343,0.0,0.0,85,0.00,,,0.00,WeatherCatV1.13B119,2013-01-30 12:50:00,
2013-01-30 04:55:00,47.9,43.6,30.28,NNW,343,0.0,0.0,85,0.00,,,0.00,WeatherCatV1.13B119,2013-01-30 12:55:00,
2013-01-30 05:00:00,47.8,43.5,30.28,NNW,343,0.0,0.0,85,0.00,,,0.00,WeatherCatV1.13B119,2013-01-30 13:00:00,
2013-01-30 05:05:00,47.8,43.5,30.28,NNW,343,0.0,0.0,85,0.00,,,0.00,WeatherCatV1.13B119,2013-01-30 13:05:00,
2013-01-30 05:10:00,47.8,43.5,30.28,NNW,342,0.0,0.0,85,0.00,,,0.00,WeatherCatV1.13B119,2013-01-30 13:10:00,
2013-01-30 05:15:00,47.6,43.3,30.28,NNW,343,0.0,0.0,85,0.00,,,0.00,WeatherCatV1.13B119,2013-01-30 13:15:00,
2013-01-30 05:20:00,47.4,43.1,30.28,NNW,343,0.0,0.0,85,0.00,,,0.00,WeatherCatV1.13B119,2013-01-30 13:20:00,
2013-01-30 05:25:00,47.2,42.9,30.28,NNW,343,0.0,0.0,85,0.00,,,0.00,WeatherCatV1.13B119,2013-01-30 13:25:00,
2013-01-30 05:30:00,46.9,42.9,30.28,NNW,343,0.0,0.0,86,0.00,,,0.00,WeatherCatV1.13B119,2013-01-30 13:30:00,
2013-01-30 05:35:00,46.7,42.7,30.29,NNW,343,0.0,0.0,86,0.00,,,0.00,WeatherCatV1.13B119,2013-01-30 13:35:00,
2013-01-30 05:40:00,46.5,42.5,30.29,NNW,343,0.0,0.0,86,0.00,,,0.00,WeatherCatV1.13B119,2013-01-30 13:40:00,
2013-01-30 05:45:00,46.7,42.7,30.29,NNW,342,0.0,0.0,86,0.00,,,0.00,WeatherCatV1.13B119,2013-01-30 13:45:00,
2013-01-30 05:50:00,46.9,42.9,30.29,NNW,343,0.0,0.0,86,0.00,,,0.00,WeatherCatV1.13B119,2013-01-30 13:50:00,
2013-01-30 05:55:00,46.8,42.8,30.29,NNW,343,0.0,0.0,86,0.00,,,0.00,WeatherCatV1.13B119,2013-01-30 13:55:00,
2013-01-30 06:00:00,46.6,42.6,30.29,NNW,343,0.0,0.0,86,0.00,,,0.00,WeatherCatV1.13B119,2013-01-30 14:00:00,
2013-01-30 06:05:00,46.5,42.5,30.29,NNW,343,0.0,0.0,86,0.00,,,0.00,WeatherCatV1.13B119,2013-01-30 14:05:00,
2013-01-30 06:10:00,46.3,42.3,30.30,NNW,343,0.0,0.0,86,0.00,,,0.00,WeatherCatV1.13B119,2013-01-30 14:10:00,
2013-01-30 06:15:00,46.2,42.2,30.30,NNW,343,0.0,0.0,86,0.00,,,0.00,WeatherCatV1.13B119,2013-01-30 14:15:00,
2013-01-30 06:20:00,46.4,42.7,30.30,NNW,343,0.0,0.0,87,0.00,,,0.00,WeatherCatV1.13B119,2013-01-30 14:20:00,
2013-01-30 06:25:00,46.4,42.7,30.30,NNW,343,0.0,0.0,87,0.00,,,0.00,WeatherCatV1.13B119,2013-01-30 14:25:00,
2013-01-30 06:30:00,46.3,42.6,30.30,NNW,343,0.0,0.0,87,0.00,,,0.00,WeatherCatV1.13B119,2013-01-30 14:30:00,
2013-01-30 06:35:00,46.3,42.9,30.30,NNW,343,0.0,0.0,88,0.00,,,0.00,WeatherCatV1.13B119,2013-01-30 14:35:00,
2013-01-30 06:40:00,46.2,42.8,30.31,NNW,343,0.0,0.0,88,0.00,,,0.00,WeatherCatV1.13B119,2013-01-30 14:40:00,
2013-01-30 06:45:00,46.2,42.5,30.31,NNW,343,0.0,0.0,87,0.00,,,0.00,WeatherCatV1.13B119,2013-01-30 14:45:00,
2013-01-30 06:50:00,46.4,42.7,30.31,NNW,343,0.0,0.0,87,0.00,,,0.00,WeatherCatV1.13B119,2013-01-30 14:50:00,
2013-01-30 06:55:00,46.8,42.8,30.31,NNW,343,0.0,0.0,86,0.00,,,0.00,WeatherCatV1.13B119,2013-01-30 14:55:00,
2013-01-30 07:00:00,47.5,43.2,30.32,NNE,30,0.0,0.0,85,0.00,,,0.00,WeatherCatV1.13B119,2013-01-30 15:00:00,
2013-01-30 07:05:00,48.1,43.2,30.31,NNE,30,0.0,0.0,83,0.00,,,0.00,WeatherCatV1.13B119,2013-01-30 15:05:00,
2013-01-30 07:10:00,48.8,43.6,30.32,NNE,32,0.0,0.0,82,0.00,,,0.00,WeatherCatV1.13B119,2013-01-30 15:10:00,
2013-01-30 07:15:00,49.1,43.5,30.32,NNE,32,0.0,0.0,81,0.00,,,0.00,WeatherCatV1.13B119,2013-01-30 15:15:00,
2013-01-30 07:20:00,49.1,43.5,30.32,NNE,32,0.0,0.0,81,0.00,,,0.00,WeatherCatV1.13B119,2013-01-30 15:20:00,
2013-01-30 07:25:00,49.4,43.5,30.32,NNE,32,0.0,0.0,80,0.00,,,0.00,WeatherCatV1.13B119,2013-01-30 15:25:00,
2013-01-30 07:30:00,49.4,43.5,30.32,NNE,32,0.0,0.0,80,0.00,,,0.00,WeatherCatV1.13B119,2013-01-30 15:30:00,
2013-01-30 07:35:00,49.3,43.4,30.32,NNE,32,0.0,0.0,80,0.00,,,0.00,WeatherCatV1.13B119,2013-01-30 15:35:00,
2013-01-30 07:40:00,49.0,43.7,30.32,NNE,30,0.0,0.0,82,0.00,,,0.00,WeatherCatV1.13B119,2013-01-30 15:40:00,
2013-01-30 07:45:00,48.6,43.4,30.32,NNE,30,0.0,0.0,82,0.00,,,0.00,WeatherCatV1.13B119,2013-01-30 15:45:00,
2013-01-30 07:50:00,49.4,44.1,30.32,NNE,30,0.0,0.0,82,0.00,,,0.00,WeatherCatV1.13B119,2013-01-30 15:50:00,
2013-01-30 07:55:00,50.1,44.2,30.32,NNE,30,0.0,0.0,80,0.00,,,0.00,WeatherCatV1.13B119,2013-01-30 15:55:00,
2013-01-30 08:00:00,50.4,44.5,30.32,NE,40,0.0,0.0,80,0.00,,,0.00,WeatherCatV1.13B119,2013-01-30 16:00:00,
2013-01-30 08:05:00,50.6,44.7,30.33,NE,40,0.0,0.0,80,0.00,,,0.00,WeatherCatV1.13B119,2013-01-30 16:05:00,
2013-01-30 08:10:00,51.0,44.7,30.33,NE,40,0.0,0.0,79,0.00,,,0.00,WeatherCatV1.13B119,2013-01-30 16:10:00,
2013-01-30 08:15:00,51.5,44.9,30.33,NE,40,0.0,0.0,78,0.00,,,0.00,WeatherCatV1.13B119,2013-01-30 16:15:00,
2013-01-30 08:20:00,52.2,45.2,30.33,NE,36,0.0,0.0,77,0.00,,,0.00,WeatherCatV1.13B119,2013-01-30 16:20:00,
2013-01-30 08:25:00,52.6,45.6,30.33,WNW,287,0.0,0.0,77,0.00,,,0.00,WeatherCatV1.13B119,2013-01-30 16:25:00,
2013-01-30 08:30:00,52.5,45.5,30.33,NNE,23,0.0,0.0,77,0.00,,,0.00,WeatherCatV1.13B119,2013-01-30 16:30:00,
2013-01-30 08:35:00,52.3,45.0,30.33,NE,35,0.0,0.0,76,0.00,,,0.00,WeatherCatV1.13B119,2013-01-30 16:35:00,
2013-01-30 08:40:00,52.2,44.9,30.33,NE,34,0.0,2.0,76,0.00,,,0.00,WeatherCatV1.13B119,2013-01-30 16:40:00,
2013-01-30 08:45:00,53.0,46.0,30.33,WSW,250,1.0,2.0,77,0.00,,,0.00,WeatherCatV1.13B119,2013-01-30 16:45:00,
2013-01-30 08:50:00,53.1,45.7,30.33,NNE,28,1.0,1.0,76,0.00,,,0.00,WeatherCatV1.13B119,2013-01-30 16:50:00,
2013-01-30 08:55:00,52.7,45.0,30.33,NE,34,2.0,3.0,75,0.00,,,0.00,WeatherCatV1.13B119,2013-01-30 16:55:00,
2013-01-30 09:00:00,52.3,45.0,30.33,NE,34,1.0,2.0,76,0.00,,,0.00,WeatherCatV1.13B119,2013-01-30 17:00:00,
2013-01-30 09:05:00,52.7,45.7,30.34,NE,34,0.0,0.0,77,0.00,,,0.00,WeatherCatV1.13B119,2013-01-30 17:05:00,
2013-01-30 09:10:00,53.4,46.0,30.33,NE,34,0.0,0.0,76,0.00,,,0.00,WeatherCatV1.13B119,2013-01-30 17:10:00,
2013-01-30 09:16:00,53.8,45.7,30.34,NE,34,0.0,1.0,74,0.00,,,0.00,WeatherCatV1.13B119,2013-01-30 17:16:00,
2013-01-30 09:21:00,54.1,46.0,30.34,NE,34,2.0,2.0,74,0.00,,,0.00,WeatherCatV1.13B119,2013-01-30 17:21:00,
2013-01-30 09:26:00,54.0,46.3,30.34,NE,34,2.0,2.0,75,0.00,,,0.00,WeatherCatV1.13B119,2013-01-30 17:26:00,
2013-01-30 09:31:00,53.7,46.0,30.34,NE,34,1.0,2.0,75,0.00,,,0.00,WeatherCatV1.13B119,2013-01-30 17:31:00,
2013-01-30 09:36:00,53.7,46.3,30.34,NE,34,0.0,0.0,76,0.00,,,0.00,WeatherCatV1.13B119,2013-01-30 17:36:00,
2013-01-30 09:41:00,55.1,48.4,30.34,NE,34,0.0,1.0,78,0.00,,,0.00,WeatherCatV1.13B119,2013-01-30 17:41:00,
2013-01-30 09:46:00,57.0,48.8,30.34,NW,310,0.0,0.0,74,0.00,,,0.00,WeatherCatV1.13B119,2013-01-30 17:46:00,
2013-01-30 09:51:00,57.7,47.6,30.34,NNE,13,1.0,1.0,69,0.00,,,0.00,WeatherCatV1.13B119,2013-01-30 17:51:00,
2013-01-30 09:56:00,56.9,46.1,30.35,NNE,20,0.0,0.0,67,0.00,,,0.00,WeatherCatV1.13B119,2013-01-30 17:56:00,
2013-01-30 10:01:00,56.6,46.2,30.34,NNE,20,0.0,0.0,68,0.00,,,0.00,WeatherCatV1.13B119,2013-01-30 18:01:00,
2013-01-30 10:06:00,56.7,46.3,30.34,NNE,20,0.0,0.0,68,0.00,,,0.00,WeatherCatV1.13B119,2013-01-30 18:06:00,
2013-01-30 10:11:00,56.8,46.0,30.34,NNE,22,0.0,0.0,67,0.00,,,0.00,WeatherCatV1.13B119,2013-01-30 18:11:00,
2013-01-30 10:16:00,56.7,47.0,30.34,NE,39,0.0,0.0,70,0.00,,,0.00,WeatherCatV1.13B119,2013-01-30 18:16:00,
2013-01-30 10:21:00,56.7,47.0,30.34,NE,39,0.0,0.0,70,0.00,,,0.00,WeatherCatV1.13B119,2013-01-30 18:21:00,
2013-01-30 10:26:00,57.9,49.7,30.35,WSW,256,0.0,0.0,74,0.00,,,0.00,WeatherCatV1.13B119,2013-01-30 18:26:00,
2013-01-30 10:31:00,58.7,48.9,30.35,West,270,0.0,0.0,70,0.00,,,0.00,WeatherCatV1.13B119,2013-01-30 18:31:00,
2013-01-30 10:36:00,58.7,49.3,30.35,WSW,243,2.0,3.0,71,0.00,,,0.00,WeatherCatV1.13B119,2013-01-30 18:36:00,
2013-01-30 10:41:00,58.5,49.1,30.35,West,262,2.0,4.0,71,0.00,,,0.00,WeatherCatV1.13B119,2013-01-30 18:41:00,
2013-01-30 10:46:00,58.4,49.0,30.35,West,267,1.0,3.0,71,0.00,,,0.00,WeatherCatV1.13B119,2013-01-30 18:46:00,
2013-01-30 10:51:00,58.4,49.0,30.35,WSW,243,1.0,2.0,71,0.00,,,0.00,WeatherCatV1.13B119,2013-01-30 18:51:00,
2013-01-30 10:56:00,59.4,48.4,30.35,ENE,77,0.0,1.0,67,0.00,,,0.00,WeatherCatV1.13B119,2013-01-30 18:56:00,
2013-01-30 11:01:00,60.7,49.3,30.35,SW,235,1.0,2.0,66,0.00,,,0.00,WeatherCatV1.13B119,2013-01-30 19:01:00,
2013-01-30 11:06:00,61.0,49.1,30.34,West,260,1.0,3.0,65,0.00,,,0.00,WeatherCatV1.13B119,2013-01-30 19:06:00,
2013-01-30 11:11:00,61.1,47.5,30.35,WSW,246,4.0,4.0,61,0.00,,,0.00,WeatherCatV1.13B119,2013-01-30 19:11:00,
2013-01-30 11:16:00,61.4,47.8,30.34,WSW,248,1.0,4.0,61,0.00,,,0.00,WeatherCatV1.13B119,2013-01-30 19:16:00,
2013-01-30 11:21:00,61.8,48.2,30.34,SW,236,1.0,3.0,61,0.00,,,0.00,WeatherCatV1.13B119,2013-01-30 19:21:00,
2013-01-30 11:26:00,61.6,46.7,30.34,West,266,3.0,4.0,58,0.00,,,0.00,WeatherCatV1.13B119,2013-01-30 19:26:00,
2013-01-30 11:31:00,61.6,47.1,30.34,West,262,2.0,3.0,59,0.00,,,0.00,WeatherCatV1.13B119,2013-01-30 19:31:00,
2013-01-30 11:36:00,61.2,46.3,30.33,SW,226,1.0,4.0,58,0.00,,,0.00,WeatherCatV1.13B119,2013-01-30 19:36:00,
2013-01-30 11:41:00,61.7,46.8,30.33,WSW,252,4.0,4.0,58,0.00,,,0.00,WeatherCatV1.13B119,2013-01-30 19:41:00,
2013-01-30 11:46:00,61.4,46.0,30.33,WSW,255,4.0,5.0,57,0.00,,,0.00,WeatherCatV1.13B119,2013-01-30 19:46:00,
2013-01-30 11:51:00,61.3,45.5,30.33,West,261,4.0,6.0,56,0.00,,,0.00,WeatherCatV1.13B119,2013-01-30 19:51:00,
2013-01-30 11:56:00,61.0,45.7,30.33,South,191,3.0,4.0,57,0.00,,,0.00,WeatherCatV1.13B119,2013-01-30 19:56:00,
2013-01-30 12:01:00,61.4,45.1,30.32,WSW,253,3.0,4.0,55,0.00,,,0.00,WeatherCatV1.13B119,2013-01-30 20:01:00,
2013-01-30 12:06:00,61.4,44.6,30.32,West,262,3.0,6.0,54,0.00,,,0.00,WeatherCatV1.13B119,2013-01-30 20:06:00,
2013-01-30 12:11:00,61.3,45.0,30.32,West,263,4.0,7.0,55,0.00,,,0.00,WeatherCatV1.13B119,2013-01-30 20:11:00,
2013-01-30 12:16:00,61.5,45.7,30.32,WSW,246,4.0,5.0,56,0.00,,,0.00,WeatherCatV1.13B119,2013-01-30 20:16:00,
2013-01-30 12:21:00,61.9,45.1,30.31,WSW,245,5.0,6.0,54,0.00,,,0.00,WeatherCatV1.13B119,2013-01-30 20:21:00,
2013-01-30 12:26:00,62.1,46.2,30.31,West,277,5.0,7.0,56,0.00,,,0.00,WeatherCatV1.13B119,2013-01-30 20:26:00,
2013-01-30 12:31:00,61.6,45.3,30.31,SW,223,3.0,8.0,55,0.00,,,0.00,WeatherCatV1.13B119,2013-01-30 20:31:00,
2013-01-30 12:36:00,61.7,45.4,30.31,SW,233,8.0,8.0,55,0.00,,,0.00,WeatherCatV1.13B119,2013-01-30 20:36:00,
2013-01-30 12:41:00,61.9,44.6,30.31,SW,233,5.0,8.0,53,0.00,,,0.00,WeatherCatV1.13B119,2013-01-30 20:41:00,
2013-01-30 12:46:00,62.5,45.6,30.31,West,264,3.0,6.0,54,0.00,,,0.00,WeatherCatV1.13B119,2013-01-30 20:46:00,
2013-01-30 12:51:00,63.2,46.3,30.30,WSW,239,3.0,6.0,54,0.00,,,0.00,WeatherCatV1.13B119,2013-01-30 20:51:00,
2013-01-30 12:56:00,63.0,45.1,30.30,WSW,240,4.0,5.0,52,0.00,,,0.00,WeatherCatV1.13B119,2013-01-30 20:56:00,
2013-01-30 13:01:00,62.9,45.5,30.30,WSW,243,5.0,5.0,53,0.00,,,0.00,WeatherCatV1.13B119,2013-01-30 21:01:00,
2013-01-30 13:06:00,62.6,46.2,30.30,West,269,1.0,4.0,55,0.00,,,0.00,WeatherCatV1.13B119,2013-01-30 21:06:00,
2013-01-30 13:11:00,62.8,46.4,30.30,SSW,200,2.0,3.0,55,0.00,,,0.00,WeatherCatV1.13B119,2013-01-30 21:11:00,
2013-01-30 13:16:00,63.1,44.7,30.30,SW,218,3.0,4.0,51,0.00,,,0.00,WeatherCatV1.13B119,2013-01-30 21:16:00,
2013-01-30 13:21:00,63.4,45.5,30.30,SW,214,2.0,5.0,52,0.00,,,0.00,WeatherCatV1.13B119,2013-01-30 21:21:00,
2013-01-30 13:26:00,63.4,45.5,30.29,West,270,3.0,5.0,52,0.00,,,0.00,WeatherCatV1.13B119,2013-01-30 21:26:00,
2013-01-30 13:31:00,63.6,44.6,30.29,WSW,243,3.0,4.0,50,0.00,,,0.00,WeatherCatV1.13B119,2013-01-30 21:31:00,
2013-01-30 13:36:00,63.7,44.7,30.29,West,267,3.0,4.0,50,0.00,,,0.00,WeatherCatV1.13B119,2013-01-30 21:36:00,
2013-01-30 13:41:00,63.9,46.4,30.29,West,260,4.0,5.0,53,0.00,,,0.00,WeatherCatV1.13B119,2013-01-30 21:41:00,
2013-01-30 13:46:00,64.0,46.5,30.28,SW,236,1.0,5.0,53,0.00,,,0.00,WeatherCatV1.13B119,2013-01-30 21:46:00,
2013-01-30 13:51:00,64.4,45.9,30.28,WSW,250,3.0,5.0,51,0.00,,,0.00,WeatherCatV1.13B119,2013-01-30 21:51:00,
2013-01-30 13:56:00,64.7,45.6,30.28,WSW,256,3.0,4.0,50,0.00,,,0.00,WeatherCatV1.13B119,2013-01-30 21:56:00,
2013-01-30 14:01:00,64.6,46.1,30.28,West,274,3.0,4.0,51,0.00,,,0.00,WeatherCatV1.13B119,2013-01-30 22:01:00,
2013-01-30 14:06:00,64.7,45.6,30.28,WSW,249,4.0,6.0,50,0.00,,,0.00,WeatherCatV1.13B119,2013-01-30 22:06:00,
2013-01-30 14:11:00,64.3,45.8,30.28,WSW,254,4.0,5.0,51,0.00,,,0.00,WeatherCatV1.13B119,2013-01-30 22:11:00,
2013-01-30 14:16:00,64.9,45.8,30.28,WSW,246,4.0,4.0,50,0.00,,,0.00,WeatherCatV1.13B119,2013-01-30 22:16:00,
2013-01-30 14:21:00,64.7,47.2,30.28,SSW,207,2.0,3.0,53,0.00,,,0.00,WeatherCatV1.13B119,2013-01-30 22:21:00,
2013-01-30 14:26:00,64.8,45.7,30.28,WSW,253,3.0,5.0,50,0.00,,,0.00,WeatherCatV1.13B119,2013-01-30 22:26:00,
2013-01-30 14:31:00,64.7,47.2,30.28,West,264,2.0,5.0,53,0.00,,,0.00,WeatherCatV1.13B119,2013-01-30 22:31:00,
2013-01-30 14:36:00,64.8,47.8,30.28,WSW,250,1.0,4.0,54,0.00,,,0.00,WeatherCatV1.13B119,2013-01-30 22:36:00,
2013-01-30 14:41:00,64.9,47.4,30.28,SW,229,4.0,4.0,53,0.00,,,0.00,WeatherCatV1.13B119,2013-01-30 22:41:00,
2013-01-30 14:46:00,65.1,47.0,30.28,WSW,249,3.0,4.0,52,0.00,,,0.00,WeatherCatV1.13B119,2013-01-30 22:46:00,
2013-01-30 14:51:00,65.1,47.5,30.28,West,270,3.0,5.0,53,0.00,,,0.00,WeatherCatV1.13B119,2013-01-30 22:51:00,
2013-01-30 14:56:00,64.9,47.4,30.28,SW,224,1.0,4.0,53,0.00,,,0.00,WeatherCatV1.13B119,2013-01-30 22:56:00,
2013-01-30 15:01:00,65.0,46.9,30.28,WSW,245,3.0,5.0,52,0.00,,,0.00,WeatherCatV1.13B119,2013-01-30 23:01:00,
2013-01-30 15:06:00,64.8,47.8,30.27,WSW,246,4.0,5.0,54,0.00,,,0.00,WeatherCatV1.13B119,2013-01-30 23:06:00,
2013-01-30 15:11:00,65.1,48.0,30.27,West,276,3.0,5.0,54,0.00,,,0.00,WeatherCatV1.13B119,2013-01-30 23:11:00,
2013-01-30 15:16:00,65.3,49.2,30.27,West,276,2.0,5.0,56,0.00,,,0.00,WeatherCatV1.13B119,2013-01-30 23:16:00,
2013-01-30 15:21:00,65.1,48.5,30.27,WSW,257,4.0,5.0,55,0.00,,,0.00,WeatherCatV1.13B119,2013-01-30 23:21:00,
2013-01-30 15:26:00,64.7,48.6,30.27,West,262,5.0,7.0,56,0.00,,,0.00,WeatherCatV1.13B119,2013-01-30 23:26:00,
2013-01-30 15:31:00,64.1,48.5,30.27,West,262,4.0,6.0,57,0.00,,,0.00,WeatherCatV1.13B119,2013-01-30 23:31:00,
2013-01-30 15:36:00,64.6,48.5,30.27,WSW,256,5.0,6.0,56,0.00,,,0.00,WeatherCatV1.13B119,2013-01-30 23:36:00,
2013-01-30 15:41:00,64.5,48.4,30.27,WSW,258,3.0,5.0,56,0.00,,,0.00,WeatherCatV1.13B119,2013-01-30 23:41:00,
2013-01-30 15:46:00,64.2,48.2,30.27,West,269,4.0,6.0,56,0.00,,,0.00,WeatherCatV1.13B119,2013-01-30 23:46:00,
2013-01-30 15:51:00,63.9,47.9,30.27,WSW,253,4.0,5.0,56,0.00,,,0.00,WeatherCatV1.13B119,2013-01-30 23:51:00,
2013-01-30 15:56:00,63.8,47.8,30.27,SW,228,4.0,6.0,56,0.00,,,0.00,WeatherCatV1.13B119,2013-01-30 23:56:00,
2013-01-30 16:01:00,63.9,48.4,30.26,WSW,256,3.0,6.0,57,0.00,,,0.00,WeatherCatV1.13B119,2013-01-31 00:01:00,
2013-01-30 16:06:00,64.1,48.1,30.27,West,264,4.0,4.0,56,0.00,,,0.00,WeatherCatV1.13B119,2013-01-31 00:06:00,
2013-01-30 16:11:00,63.9,46.9,30.27,WSW,255,5.0,5.0,54,0.00,,,0.00,WeatherCatV1.13B119,2013-01-31 00:11:00,
2013-01-30 16:16:00,63.5,47.0,30.27,SW,223,5.0,6.0,55,0.00,,,0.00,WeatherCatV1.13B119,2013-01-31 00:16:00,
2013-01-30 16:21:00,63.3,46.9,30.27,West,264,5.0,6.0,55,0.00,,,0.00,WeatherCatV1.13B119,2013-01-31 00:21:00,
2013-01-30 16:26:00,62.9,47.9,30.27,WSW,256,3.0,5.0,58,0.00,,,0.00,WeatherCatV1.13B119,2013-01-31 00:26:00,
2013-01-30 16:31:00,62.5,47.1,30.27,WSW,255,5.0,7.0,57,0.00,,,0.00,WeatherCatV1.13B119,2013-01-31 00:31:00,
2013-01-30 16:36:00,61.9,47.0,30.27,West,267,4.0,7.0,58,0.00,,,0.00,WeatherCatV1.13B119,2013-01-31 00:36:00,
2013-01-30 16:41:00,61.3,47.3,30.27,SW,217,5.0,5.0,60,0.00,,,0.00,WeatherCatV1.13B119,2013-01-31 00:41:00,
2013-01-30 16:46:00,60.9,47.8,30.27,WSW,252,6.0,6.0,62,0.00,,,0.00,WeatherCatV1.13B119,2013-01-31 00:46:00,
2013-01-30 16:51:00,60.2,47.6,30.27,West,274,5.0,7.0,63,0.00,,,0.00,WeatherCatV1.13B119,2013-01-31 00:51:00,
2013-01-30 16:56:00,59.3,47.5,30.27,West,262,4.0,7.0,65,0.00,,,0.00,WeatherCatV1.13B119,2013-01-31 00:56:00,
2013-01-30 17:01:00,59.2,47.4,30.27,WSW,238,3.0,5.0,65,0.00,,,0.00,WeatherCatV1.13B119,2013-01-31 01:01:00,
2013-01-30 17:06:00,59.1,46.9,30.27,WSW,255,2.0,5.0,64,0.00,,,0.00,WeatherCatV1.13B119,2013-01-31 01:06:00,
2013-01-30 17:11:00,59.0,46.8,30.27,WSW,244,2.0,3.0,64,0.00,,,0.00,WeatherCatV1.13B119,2013-01-31 01:11:00,
2013-01-30 17:16:00,58.7,46.1,30.27,WSW,257,4.0,5.0,63,0.00,,,0.00,WeatherCatV1.13B119,2013-01-31 01:16:00,
2013-01-30 17:21:00,58.1,45.6,30.27,West,260,3.0,4.0,63,0.00,,,0.00,WeatherCatV1.13B119,2013-01-31 01:21:00,
2013-01-30 17:26:00,57.3,44.8,30.27,WSW,249,3.0,4.0,63,0.00,,,0.00,WeatherCatV1.13B119,2013-01-31 01:26:00,
2013-01-30 17:31:00,56.6,44.2,30.27,WSW,250,1.0,2.0,63,0.00,,,0.00,WeatherCatV1.13B119,2013-01-31 01:31:00,
2013-01-30 17:36:00,56.2,43.8,30.27,SW,235,0.0,4.0,63,0.00,,,0.00,WeatherCatV1.13B119,2013-01-31 01:36:00,
2013-01-30 17:41:00,56.1,43.7,30.27,WSW,246,2.0,3.0,63,0.00,,,0.00,WeatherCatV1.13B119,2013-01-31 01:41:00,
2013-01-30 17:46:00,55.9,43.5,30.27,WSW,243,3.0,3.0,63,0.00,,,0.00,WeatherCatV1.13B119,2013-01-31 01:46:00,
2013-01-30 17:51:00,55.7,43.7,30.26,West,267,2.0,3.0,64,0.00,,,0.00,WeatherCatV1.13B119,2013-01-31 01:51:00,
2013-01-30 17:56:00,55.5,43.5,30.26,WSW,256,1.0,2.0,64,0.00,,,0.00,WeatherCatV1.13B119,2013-01-31 01:56:00,
2013-01-30 18:01:00,55.5,43.5,30.27,SW,219,1.0,3.0,64,0.00,,,0.00,WeatherCatV1.13B119,2013-01-31 02:01:00,
2013-01-30 18:06:00,55.6,43.2,30.27,WSW,245,2.0,3.0,63,0.00,,,0.00,WeatherCatV1.13B119,2013-01-31 02:06:00,
2013-01-30 18:11:00,55.5,43.1,30.27,SW,225,1.0,2.0,63,0.00,,,0.00,WeatherCatV1.13B119,2013-01-31 02:11:00,
2013-01-30 18:16:00,55.5,43.1,30.27,SW,236,1.0,1.0,63,0.00,,,0.00,WeatherCatV1.13B119,2013-01-31 02:16:00,
2013-01-30 18:21:00,55.7,42.9,30.27,WSW,246,0.0,2.0,62,0.00,,,0.00,WeatherCatV1.13B119,2013-01-31 02:21:00,
2013-01-30 18:26:00,55.8,43.0,30.27,WSW,246,0.0,2.0,62,0.00,,,0.00,WeatherCatV1.13B119,2013-01-31 02:26:00,
2013-01-30 18:31:00,55.7,42.9,30.27,West,271,0.0,2.0,62,0.00,,,0.00,WeatherCatV1.13B119,2013-01-31 02:31:00,
2013-01-30 18:36:00,55.4,43.0,30.27,West,259,0.0,0.0,63,0.00,,,0.00,WeatherCatV1.13B119,2013-01-31 02:36:00,
2013-01-30 18:41:00,55.2,42.8,30.27,West,259,0.0,0.0,63,0.00,,,0.00,WeatherCatV1.13B119,2013-01-31 02:41:00,
2013-01-30 18:48:00,55.1,42.7,30.27,WSW,249,0.0,0.0,63,0.00,,,0.00,WeatherCatV1.13B119,2013-01-31 02:48:00,
2013-01-30 18:53:00,55.0,42.6,30.27,WSW,252,0.0,0.0,63,0.00,,,0.00,WeatherCatV1.13B119,2013-01-31 02:53:00,
2013-01-30 18:58:00,54.9,43.0,30.27,WSW,252,0.0,0.0,64,0.00,,,0.00,WeatherCatV1.13B119,2013-01-31 02:58:00,
2013-01-30 19:03:00,54.8,43.3,30.27,WSW,252,0.0,0.0,65,0.00,,,0.00,WeatherCatV1.13B119,2013-01-31 03:03:00,
2013-01-30 19:08:00,54.7,43.6,30.27,WSW,252,0.0,0.0,66,0.00,,,0.00,WeatherCatV1.13B119,2013-01-31 03:08:00,
2013-01-30 19:13:00,54.7,44.7,30.27,WSW,252,0.0,0.0,69,0.00,,,0.00,WeatherCatV1.13B119,2013-01-31 03:13:00,
2013-01-30 19:18:00,54.9,44.9,30.27,NE,37,1.0,1.0,69,0.00,,,0.00,WeatherCatV1.13B119,2013-01-31 03:18:00,
2013-01-30 19:23:00,55.1,45.1,30.27,NE,37,1.0,1.0,69,0.00,,,0.00,WeatherCatV1.13B119,2013-01-31 03:23:00,
2013-01-30 19:28:00,55.1,45.5,30.27,NE,37,1.0,2.0,70,0.00,,,0.00,WeatherCatV1.13B119,2013-01-31 03:28:00,
2013-01-30 19:33:00,55.1,45.5,30.27,NE,37,1.0,1.0,70,0.00,,,0.00,WeatherCatV1.13B119,2013-01-31 03:33:00,
2013-01-30 19:38:00,55.0,45.4,30.27,NE,37,0.0,0.0,70,0.00,,,0.00,WeatherCatV1.13B119,2013-01-31 03:38:00,
2013-01-30 19:43:00,54.7,45.1,30.28,NE,37,0.0,0.0,70,0.00,,,0.00,WeatherCatV1.13B119,2013-01-31 03:43:00,
2013-01-30 19:48:00,54.2,44.6,30.27,NE,37,0.0,1.0,70,0.00,,,0.00,WeatherCatV1.13B119,2013-01-31 03:48:00,
2013-01-30 19:53:00,54.3,45.8,30.27,NE,37,0.0,1.0,73,0.00,,,0.00,WeatherCatV1.13B119,2013-01-31 03:53:00,
2013-01-30 19:58:00,54.7,45.9,30.27,NE,37,0.0,0.0,72,0.00,,,0.00,WeatherCatV1.13B119,2013-01-31 03:58:00,
2013-01-30 20:03:00,54.9,46.0,30.27,NE,39,0.0,0.0,72,0.00,,,0.00,WeatherCatV1.13B119,2013-01-31 04:03:00,
2013-01-30 20:08:00,54.8,45.9,30.27,NE,39,0.0,0.0,72,0.00,,,0.00,WeatherCatV1.13B119,2013-01-31 04:08:00,
2013-01-30 20:13:00,54.7,45.9,30.27,NE,39,0.0,0.0,72,0.00,,,0.00,WeatherCatV1.13B119,2013-01-31 04:13:00,
2013-01-30 20:18:00,54.7,45.9,30.27,NE,39,0.0,0.0,72,0.00,,,0.00,WeatherCatV1.13B119,2013-01-31 04:18:00,
2013-01-30 20:23:00,54.9,45.7,30.27,NE,39,0.0,0.0,71,0.00,,,0.00,WeatherCatV1.13B119,2013-01-31 04:23:00,
2013-01-30 20:28:00,54.9,45.7,30.27,NE,40,1.0,1.0,71,0.00,,,0.00,WeatherCatV1.13B119,2013-01-31 04:28:00,
2013-01-30 20:33:00,54.9,45.7,30.27,NE,41,0.0,1.0,71,0.00,,,0.00,WeatherCatV1.13B119,2013-01-31 04:33:00,
2013-01-30 20:38:00,54.7,45.9,30.27,NE,41,0.0,2.0,72,0.00,,,0.00,WeatherCatV1.13B119,2013-01-31 04:38:00,
2013-01-30 20:43:00,54.5,45.7,30.27,NE,41,1.0,2.0,72,0.00,,,0.00,WeatherCatV1.13B119,2013-01-31 04:43:00,
2013-01-30 20:48:00,54.3,45.5,30.27,NE,41,1.0,1.0,72,0.00,,,0.00,WeatherCatV1.13B119,2013-01-31 04:48:00,
2013-01-30 20:53:00,54.1,45.6,30.27,NE,41,0.0,0.0,73,0.00,,,0.00,WeatherCatV1.13B119,2013-01-31 04:53:00,
2013-01-30 20:58:00,53.8,45.3,30.27,NE,41,0.0,0.0,73,0.00,,,0.00,WeatherCatV1.13B119,2013-01-31 04:58:00,
2013-01-30 21:00:00,53.7,45.3,30.27,NE,41,0.0,0.0,73,0.00,,,0.00,WeatherCatV1.13B119,2013-01-31 05:00:00,
2013-01-30 21:05:00,53.4,45.0,30.27,NE,41,0.0,0.0,73,0.00,,,0.00,WeatherCatV1.13B119,2013-01-31 05:05:00,
2013-01-30 21:10:00,53.2,45.1,30.27,NE,41,0.0,0.0,74,0.00,,,0.00,WeatherCatV1.13B119,2013-01-31 05:10:00,
2013-01-30 21:15:00,53.4,45.3,30.27,NE,41,0.0,0.0,74,0.00,,,0.00,WeatherCatV1.13B119,2013-01-31 05:15:00,
2013-01-30 21:20:00,53.3,45.2,30.28,NE,41,0.0,1.0,74,0.00,,,0.00,WeatherCatV1.13B119,2013-01-31 05:20:00,
2013-01-30 21:25:00,53.2,45.1,30.28,NE,39,1.0,2.0,74,0.00,,,0.00,WeatherCatV1.13B119,2013-01-31 05:25:00,
2013-01-30 21:30:00,53.0,45.3,30.27,NE,42,1.0,3.0,75,0.00,,,0.00,WeatherCatV1.13B119,2013-01-31 05:30:00,
2013-01-30 21:35:00,52.9,45.2,30.27,NE,34,1.0,2.0,75,0.00,,,0.00,WeatherCatV1.13B119,2013-01-31 05:35:00,
2013-01-30 21:40:00,52.8,45.4,30.27,NE,42,2.0,3.0,76,0.00,,,0.00,WeatherCatV1.13B119,2013-01-31 05:40:00,
2013-01-30 21:45:00,52.8,45.4,30.27,NE,42,1.0,2.0,76,0.00,,,0.00,WeatherCatV1.13B119,2013-01-31 05:45:00,
2013-01-30 21:50:00,52.7,45.3,30.27,NE,41,1.0,1.0,76,0.00,,,0.00,WeatherCatV1.13B119,2013-01-31 05:50:00,
2013-01-30 21:53:00,52.7,45.7,30.27,NE,39,1.0,3.0,77,0.00,,,0.00,WeatherCatV1.13B119,2013-01-31 05:53:00,
2013-01-30 21:58:00,52.8,45.8,30.27,NE,41,2.0,3.0,77,0.00,,,0.00,WeatherCatV1.13B119,2013-01-31 05:58:00,
2013-01-30 22:03:00,52.8,45.8,30.27,NE,40,2.0,3.0,77,0.00,,,0.00,WeatherCatV1.13B119,2013-01-31 06:03:00,
2013-01-30 22:08:00,52.9,45.9,30.27,NE,41,3.0,4.0,77,0.00,,,0.00,WeatherCatV1.13B119,2013-01-31 06:08:00,
2013-01-30 22:13:00,52.9,45.5,30.27,NE,39,1.0,2.0,76,0.00,,,0.00,WeatherCatV1.13B119,2013-01-31 06:13:00,
2013-01-30 22:18:00,52.9,45.5,30.27,NE,40,2.0,2.0,76,0.00,,,0.00,WeatherCatV1.13B119,2013-01-31 06:18:00,
2013-01-30 22:23:00,53.0,45.6,30.27,NE,40,2.0,3.0,76,0.00,,,0.00,WeatherCatV1.13B119,2013-01-31 06:23:00,
2013-01-30 22:28:00,53.0,45.6,30.27,NE,42,2.0,2.0,76,0.00,,,0.00,WeatherCatV1.13B119,2013-01-31 06:28:00,
2013-01-30 22:33:00,53.1,46.1,30.27,NE,46,1.0,3.0,77,0.00,,,0.00,WeatherCatV1.13B119,2013-01-31 06:33:00,
2013-01-30 22:38:00,53.1,46.1,30.27,NE,42,1.0,2.0,77,0.00,,,0.00,WeatherCatV1.13B119,2013-01-31 06:38:00,
2013-01-30 22:43:00,52.8,46.1,30.27,NE,42,1.0,2.0,78,0.00,,,0.00,WeatherCatV1.13B119,2013-01-31 06:43:00,
2013-01-30 22:48:00,52.7,46.0,30.27,NE,40,1.0,2.0,78,0.00,,,0.00,WeatherCatV1.13B119,2013-01-31 06:48:00,
2013-01-30 22:53:00,52.8,46.1,30.27,NE,39,2.0,3.0,78,0.00,,,0.00,WeatherCatV1.13B119,2013-01-31 06:53:00,
2013-01-30 22:57:00,52.7,46.0,30.27,NE,36,2.0,3.0,78,0.00,,,0.00,WeatherCatV1.13B119,2013-01-31 06:57:00,
2013-01-30 23:02:00,52.7,45.7,30.27,NE,43,2.0,3.0,77,0.00,,,0.00,WeatherCatV1.13B119,2013-01-31 07:02:00,
2013-01-30 23:07:00,52.5,45.5,30.27,NE,41,1.0,2.0,77,0.00,,,0.00,WeatherCatV1.13B119,2013-01-31 07:07:00,
2013-01-30 23:12:00,52.2,45.5,30.27,NE,39,1.0,2.0,78,0.00,,,0.00,WeatherCatV1.13B119,2013-01-31 07:12:00,
2013-01-30 23:17:00,51.9,45.3,30.28,NE,39,1.0,2.0,78,0.00,,,0.00,WeatherCatV1.13B119,2013-01-31 07:17:00,
2013-01-30 23:22:00,51.6,45.3,30.28,NNE,33,2.0,3.0,79,0.00,,,0.00,WeatherCatV1.13B119,2013-01-31 07:22:00,
2013-01-30 23:27:00,51.2,45.2,30.28,NNE,32,2.0,2.0,80,0.00,,,0.00,WeatherCatV1.13B119,2013-01-31 07:27:00,
2013-01-30 23:32:00,50.8,44.9,30.28,NNE,28,2.0,3.0,80,0.00,,,0.00,WeatherCatV1.13B119,2013-01-31 07:32:00,
2013-01-30 23:37:00,50.2,44.6,30.28,NE,36,2.0,4.0,81,0.00,,,0.00,WeatherCatV1.13B119,2013-01-31 07:37:00,
2013-01-30 23:42:00,49.8,44.5,30.28,NE,41,2.0,2.0,82,0.00,,,0.00,WeatherCatV1.13B119,2013-01-31 07:42:00,
2013-01-30 23:47:00,49.4,44.1,30.28,NE,34,2.0,3.0,82,0.00,,,0.00,WeatherCatV1.13B119,2013-01-31 07:47:00,
2013-01-30 23:52:00,49.4,44.5,30.28,NE,37,1.0,3.0,83,0.00,,,0.00,WeatherCatV1.13B119,2013-01-31 07:52:00,
2013-01-30 23:57:00,49.4,44.1,30.28,NE,39,4.0,4.0,82,0.00,,,0.00,WeatherCatV1.13B119,2013-01-31 07:57:00,